Location: Unspecified
(0.0000°N, 0.0000°E)
Time: 16:00:41
(UTC+00:00)

Envisat - Pass Details

Date: 14 December 2018
Orbit: 764 x 766 km, 98.2° (Epoch: 13 December)

Event Time Altitude Azimuth Distance (km) Brightness Sun altitude
Rises 19:01:09 0° 161° (SSE) 3,230 6.3 -15.2°
Reaches altitude 10° 19:03:29 10° 157° (SSE) 2,302 5.5 -15.7°
Maximum altitude 19:08:28 59° 78° (ENE) 878 3.0 -16.9°
Drops below altitude 10° 19:13:26 10° 359° (N) 2,291 5.2 -18.0°
Sets 19:15:46 0° 355° (N) 3,214 6.0 -18.5°
